COSMOS 883

Satellite information

Favourite Embed

Satellite Type and Status

PAYLOADIN ORBIT

Key statistics

Satellite COSMOS 883 at a glance.

Uptime

17737

Days in orbit

Revolutions

≈ 13.8

Per day

Orbit

LEO

Low Earth Orbit

Inclination

83.0

Latest

Satellite identification and parameters

Extended collection of information and parameters for COSMOS 883.

Object identification

Identified? True

Debris? False

Object name: COSMOS 883

International designator: 1976-122A

Object number (NORAD): 9610

Object ID (CCSDS): 9610

Country: COMMONWEALTH OF INDEPENDENT STATES (CIS)

Current information (Y/N): Y

RCS size: LARGE

Orbital parameters

Period: 104.627 minutes

Inclination: 82.9532 deg

SMA: 7355.111 km

Apoapsis: 1003.401 km

Periapsis: 950.552 km

RAAN: 159.9263 deg

Eccentricy: 0.0035927

Argument of periapsis: 97.0051 deg

Mean anomaly: 263.5195 deg

Mean motion: 13.76318278 rev/day

Mean motion (dot): 0.00000055 rev/day2

B* drag term: 0.000040323 1/REarth

Two-line elements (TLE)

Creation date: July 8, 2025, 2:27 a.m.

Reference frame: TEME

Reference center: EARTH

Epoch: July 7, 2025, 10:23 p.m. UTC

TLE line 0: 0 COSMOS 883

TLE line 1: 1 09610U 76122A 25188.93272730 .00000055 00000-0 40323-4 0 9997

TLE line 2: 2 09610 82.9532 159.9263 0035927 97.0051 263.5195 13.76318278437618

Live tracking on map

Real-time ground track for satellite COSMOS 883.

In-orbit conjunctions

A list of the most updated potential collisions computed for object COSMOS 883.

Target Orbit TCA Probability of collision Miss distance Type
COSMOS 2251 DEB LEO 2025-04-14 23:31:57 0.0003521108 795.0 (m) DEBRIS
THORAD AGENA D DEB SSO 2025-02-15 16:14:47 0.0004902637 214.0 (m) DEBRIS
COSMOS 778 LEO 2025-02-11 04:59:10 0.007153692 95.0 (m) PAYLOAD
THOR AGENA B DEB HEO 2024-09-18 03:01:37 0.002308183 118.0 (m) DEBRIS

Associated space launch

Civilian navigation satellite equivalent to the purely military Parus

COSMOS 883 was lifted into orbit during the mission ‘Kosmos-3M | Tsikada 1’, on board a Kosmos-3M space rocket.

The launch took place on Dec. 15, 1976, 1:59 p.m. from 132/1 (132L).

For more information about the launch, click the button.

Launch to space Kosmos-3M | Tsikada 1
Kosmos-3M | Tsikada 1

Agency: N/A

Status: Launch Successful

Launch date: Dec. 15, 1976, 1:59 p.m. UTC

Rocket: Kosmos-3M

Launch pad: 132/1 (132L)

Location: Plesetsk Cosmodrome, Russian Federation

...

Latest news about this satellite

There are no fresh news available about this satellite. Check back as we update our databases every day.


Newsletter sign-up

Weekly statistics, charts and insights to help you stay on top of the space industry.